Weather in Suzun

Russia / Novosibirsk Oblast     53°47′20″N   82°18′58″E
temp.,
°C
wind,
m/s
gust,
m/s
humid.,
%
clouds,
%
prec.,
mm/h
press.,
hPa
HPBL,
m
3 march, wed
wed301:00−15wsw119795 0.1 101720
04:00−19w119996 0.0 101720
07:00−18sw129896 0.1 101820
10:00−15sw139599 0.1 1019182
13:00−12sw249299 0.3 1020390
16:00−9sw3590100 0.1 1021528
19:00−11ssw2494100 0.1 1022112
22:00−14sw3109489 0.0 1023335
4 march, thu
thu401:00−16s399568 0.1 1024229
04:00−14s3119278 0.0 1022400
07:00−11ssw4128989 0.1 1022561
10:00−9ssw51287100 0.0 1021607
13:00−7ssw61288100 0.0 1021653
16:00−5ssw51287100 0.0 1020704
19:00−5ssw51486100 0.0 1018637
22:00−8s3148976 0.0 1018480
5 march, fri
fri501:00−7ssw4148588 0.0 1016519
04:00−8ssw4148488 0.0 1014504
07:00−7ssw4148494 0.0 1013545
10:00−5ssw61489100 0.1 1013792
13:00−2sw81488100 0.6 10151261
16:00−3wsw8137859 0.1 10181120
19:00−5sw6158279 0.1 1020776
22:00−5sw71585100 0.1 10201091
6 march, sat
sat601:00−5sw71490100 0.5 1021953
04:00−6sw61492100 0.5 1021763
07:00−6sw61394100 1.6 1021743
10:00−6sw71583100 0.4 1020765
13:00−4ssw71578100 0.4 1018783
16:00−3sw81578100 0.0 1016904
19:00−4sw6168095 0.0 1015918
22:00−4sw7168097 0.0 1014804
7 march, sun
sun701:00−4sw7158699 0.0 1015792
04:00−5sw5139199 0.0 1016556
07:00−8sw3109497 0.0 1018269
10:00−7ssw3894100 0.0 1019302
13:00−4ssw3793100 0.1 1019448
16:00−2ssw4889100 0.1 1017619
19:00−3s4119099 0.1 1015525
22:00−5ssw4128981 0.0 1015439